Lexington Weather

Lexington, Massachusetts, USA

42°F
1/23/2020 12:09pm 
  • Lexington Conditions: Mostly cloudy
  • Temperature: 42.1°F / 5.6°CWarmer 4.3°F than last hour.
  • Dew Point: 21.7°FDecreased 0.4°Fsince last hour.
  • Relative Humidity: 44%Decreased 9.0% since last hour.
  • Wind: Calm, 10-min avg: Calm, gust: 5 mph
  • Barometer: 30.30 inFalling 0.03  inHg/hr Falling Slowly
  • Visibility: 10 miles
  • Rain Today: 0.01 in
  •   

Regional Weather Roundup
for Boston / Norton, MA

        
000
ASUS41 KBOX 231500
RWRBOX

REGIONAL WEATHER ROUNDUP
NATIONAL WEATHER SERVICE BOSTON/NORTON MA
1000 AM EST THU JAN 23 2020

NOTE:  "FAIR" INDICATES FEW OR NO CLOUDS BELOW 12,000 FEET WITH NO 
SIGNIFICANT WEATHER AND/OR OBSTRUCTIONS TO VISIBILITY.

MAZALL-231600-
EASTERN MASSACHUSETTS
  
CITY           SKY/WX    TMP DP  RH WIND       PRES   REMARKS
BOSTON         FAIR      38  18  44 SW10      30.38R WCI  31          
BEVERLY        FAIR      33  17  51 SW8       30.36R WCI  26          
LAWRENCE       FAIR      27  16  63 SW6       30.39R WCI  20          
BEDFORD        FAIR      32  15  49 SW5       30.36S WCI  27          
BLUE HILL        N/A     32  16  51 SW12      30.34S WCI  23          
NORWOOD        FAIR      37  19  48 SW6       30.39S                  
MARSHFIELD     NOT AVBL                                               
PLYMOUTH       FAIR      37  22  54 SW12      30.40R WCI  29          
TAUNTON        FAIR      37  22  54 VRB3      30.40S                  
NEW BEDFORD    FAIR      38  27  64 SW8       30.41S                  
$$

MAZALL-231600-
CAPE COD AND THE ISLANDS
  
CITY           SKY/WX    TMP DP  RH WIND       PRES   REMARKS
FALMOUTH       SUNNY     37  32  81 W10       30.41S WCI  30          
HYANNIS        NOT AVBL                                               
CHATHAM        FAIR      40  34  79 SW7       30.43R                  
PROVINCETOWN   FAIR      39  33  79 SW16      30.41S WCI  30          
NANTUCKET      FAIR      40  31  70 SW10      30.43R                  
MARTHAS VNYRD  FAIR      42  30  62 SW10      30.42R                  
$$
 
MAZALL-231600-
CENTRAL AND WESTERN MASSACHUSETTS
  
CITY           SKY/WX    TMP DP  RH WIND       PRES   REMARKS
WORCESTER      FAIR      33  14  45 SW10      30.33R WCI  25          
FITCHBURG      FAIR      28  19  69 SE3       30.36S                  
ORANGE         FAIR      15  11  83 CALM      30.38S                  
SPRINGFIELD    PTSUNNY   17  15  89 CALM      30.39S                  
WESTFIELD      NOT AVBL                                               
NORTH ADAMS    FAIR      18  12  77 CALM      30.38S                  
PITTSFIELD     FAIR      22  15  75 CALM      30.33R                  
$$
 
RIZALL-231600-
RHODE ISLAND
  
CITY           SKY/WX    TMP DP  RH WIND       PRES   REMARKS
PROVIDENCE     PTSUNNY   36  23  59 SW8       30.41S WCI  30          
NEWPORT        FAIR      38  26  62 VRB5      30.41S                  
BLOCK ISLAND   FAIR      39  27  62 W9        30.43R                  
SMITHFIELD     FAIR      35  19  52 VRB6      30.38S WCI  30          
WESTERLY       FAIR      39  27  62 SW6       30.43R                  
$$
 
CTZALL-231600-
CONNECTICUT
  
CITY           SKY/WX    TMP DP  RH WIND       PRES   REMARKS
BRADLEY INTL   PTSUNNY   24  17  74 CALM      30.40S                  
HARTFORD       FAIR      26  22  84 S3        30.43R                  
BRIDGEPORT     FAIR      35  25  66 W3        30.42S                  
DANBURY        FAIR      25  18  74 CALM      30.41R                  
GROTON         NOT AVBL                                               
NEW HAVEN      FAIR      34  25  69 W3        30.42R                  
CHESTER        NOT AVBL                                               
MERIDEN        FAIR      29  22  75 VRB6      30.42R WCI  23          
WILLIMANTIC    FAIR      21  15  78 CALM      30.43R                  
OXFORD         FAIR      32  21  64 W6        30.39R WCI  26          
$$

MEZ002-015-021-024-NHZ003-005-008-011-012-014-VTZ005-008-231600-
NORTHERN NEW ENGLAND
  
CITY           SKY/WX    TMP DP  RH WIND       PRES   REMARKS
PORTLAND ME    FAIR      32  16  51 CALM      30.35S                  
BANGOR ME      FAIR      22  18  85 CALM      30.33R                  
CONCORD NH     FAIR      20  13  74 CALM      30.36S                  
MANCHESTER NH  PTSUNNY   21  14  74 CALM      30.35R                  
NASHUA NH      FAIR      29  20  69 CALM      30.37S                  
PORTSMOUTH NH  PTSUNNY   30  15  53 W5        30.33S WCI  25          
JAFFREY NH     FAIR      28  16  60 S7        30.31S WCI  21          
KEENE NH       FAIR      21  17  84 CALM      30.39S                  
BURLINGTON VT  PTSUNNY   28  16  60 S7        30.34R WCI  21          
MT. WASHINGTON PTSUNNY   25   3  39 W38         N/A  WCI   6          
$$

NYZ052-076-231600-
EASTERN NEW YORK
  
CITY           SKY/WX    TMP DP  RH WIND       PRES   REMARKS
ALBANY         PTSUNNY   24  16  71 CALM      30.40S                  
NEW YORK CITY  PTSUNNY   39  16  39 SW9       30.42R                  
$$
 
ANZALL-231600-
MARINE OBSERVATIONS
  
STATION/POSITION TIME  TEMP    WIND        PRES    VSBY  WAVE
                       AIR SEA DIR/SP/G                  HT/PER
                 (UTC) (F)     (DEG/KT/KT) (MB)    (MI)  (FT/S)
BOSTON BUOY      1350   34 42  200/ 14/ 16 1028.0          2/ 3
BUZZARDS BAY     1400   38     240/ 12/ 13 1030.3R
NANTUCKET SOUND  1400                      1030.2
MASS BAY-STELLWA 1404   36 42  240/ 16/ 19 1026.0F  1 7/8  3/ 4
ISLE OF SHOALS   1400   29     250/ 12/ 13 1027.4F
S OF BLOCK IS    1430      45                N/A           2/ 8
$$

......................KEY.........................
  SKY/WX - SKY CONDITION/PRESENT WEATHER
  TMP    - TEMPERATURE IN FAHRENHEIT
  DWPT   - DEWPOINT IN FAHRENHEIT
  RH     - RELATIVE HUMIDITY IN PERCENT
  WIND   - DIRECTION AND SPEED IN MPH
  PRES   - MEAN SEA LEVEL PRESSURE IN INCHES OF HG
  WCI    - WIND CHILL INDEX
  VSB    - VISIBILITY IN MILES
  HX     - HEAT INDEX
  TC     - TEMPERATURE IN CELSIUS
  VRB    - VARIABLE WIND DIRECTION
  N/A    - NOT AVAILABLE
  
      

Other recent Regional Weather Roundups

Thu Jan 23, 11:10am

Thu Jan 23, 11:00am

Thu Jan 23, 10:10am

Thu Jan 23, 9:10am

Thu Jan 23, 9:00am

Thu Jan 23, 8:10am

Thu Jan 23, 8:00am

Thu Jan 23, 7:10am

Thu Jan 23, 7:01am

Thu Jan 23, 6:10am

Thu Jan 23, 6:00am

Thu Jan 23, 5:10am

Thu Jan 23, 5:00am

Thu Jan 23, 4:10am

Thu Jan 23, 4:01am

Thu Jan 23, 3:10am

Thu Jan 23, 3:00am

Thu Jan 23, 2:10am

Thu Jan 23, 2:00am

Thu Jan 23, 1:10am

Thu Jan 23, 1:00am

Thu Jan 23, 12:10am

Thu Jan 23, 12:00am

Wed Jan 22, 11:10pm

Wed Jan 22, 11:01pm

Wed Jan 22, 10:10pm

Wed Jan 22, 10:00pm

Wed Jan 22, 9:10pm

Wed Jan 22, 9:00pm

Wed Jan 22, 8:10pm

Wed Jan 22, 8:01pm

Wed Jan 22, 7:10pm

Wed Jan 22, 7:00pm

Wed Jan 22, 6:10pm

Wed Jan 22, 6:01pm

Wed Jan 22, 5:10pm

Wed Jan 22, 5:00pm

Wed Jan 22, 4:10pm

Wed Jan 22, 4:00pm

Wed Jan 22, 3:10pm

Wed Jan 22, 3:00pm

Wed Jan 22, 2:10pm

Wed Jan 22, 2:00pm

Wed Jan 22, 1:10pm

Wed Jan 22, 1:00pm

Wed Jan 22, 12:10pm

Wed Jan 22, 12:00pm

Wed Jan 22, 11:10am

Wed Jan 22, 11:00am

Wed Jan 22, 10:10am

Wed Jan 22, 10:01am

Wed Jan 22, 9:10am

Wed Jan 22, 9:00am

Wed Jan 22, 8:10am

Wed Jan 22, 8:00am

Wed Jan 22, 7:10am

Wed Jan 22, 7:00am

Wed Jan 22, 6:10am

Wed Jan 22, 6:00am

Wed Jan 22, 5:10am

Wed Jan 22, 5:00am

Wed Jan 22, 4:10am

Wed Jan 22, 4:00am

Wed Jan 22, 3:10am

Wed Jan 22, 3:01am

Wed Jan 22, 2:10am

Wed Jan 22, 2:00am

Wed Jan 22, 1:10am

Wed Jan 22, 1:00am

Wed Jan 22, 12:10am

Wed Jan 22, 12:00am

Tue Jan 21, 11:10pm

Tue Jan 21, 11:00pm

Tue Jan 21, 10:10pm

Tue Jan 21, 10:00pm

Tue Jan 21, 9:10pm

Tue Jan 21, 9:01pm

Tue Jan 21, 8:10pm

Tue Jan 21, 8:00pm

Tue Jan 21, 7:10pm

Tue Jan 21, 7:00pm

Tue Jan 21, 6:10pm

Tue Jan 21, 6:01pm

Tue Jan 21, 5:10pm

Tue Jan 21, 5:00pm

Tue Jan 21, 4:10pm

Tue Jan 21, 4:00pm

Tue Jan 21, 3:10pm

Tue Jan 21, 3:01pm

Tue Jan 21, 2:10pm

Tue Jan 21, 2:00pm

Tue Jan 21, 1:10pm

Tue Jan 21, 1:00pm

Tue Jan 21, 12:10pm

Tue Jan 21, 12:00pm

Tue Jan 21, 11:10am

Tue Jan 21, 11:00am

Tue Jan 21, 10:10am

Tue Jan 21, 10:00am

Tue Jan 21, 9:10am

Tue Jan 21, 9:00am

Tue Jan 21, 8:10am

Tue Jan 21, 8:00am

Tue Jan 21, 7:10am

Tue Jan 21, 7:00am

Tue Jan 21, 6:10am

Tue Jan 21, 6:00am

Tue Jan 21, 5:10am

Tue Jan 21, 5:00am

Tue Jan 21, 4:10am

Tue Jan 21, 4:00am

Tue Jan 21, 3:10am

Tue Jan 21, 3:00am

Tue Jan 21, 2:10am

Tue Jan 21, 2:01am

Tue Jan 21, 1:10am

Tue Jan 21, 1:00am

Tue Jan 21, 12:10am

Tue Jan 21, 12:00am

Mon Jan 20, 11:10pm

Mon Jan 20, 11:00pm

Mon Jan 20, 10:10pm

Mon Jan 20, 10:00pm

Mon Jan 20, 9:10pm

Mon Jan 20, 9:00pm

Mon Jan 20, 8:10pm

Mon Jan 20, 8:00pm

Mon Jan 20, 7:10pm

Mon Jan 20, 7:00pm

Mon Jan 20, 6:10pm

Mon Jan 20, 6:00pm

Mon Jan 20, 5:10pm

Mon Jan 20, 5:00pm

Mon Jan 20, 4:10pm

Mon Jan 20, 4:01pm

Mon Jan 20, 3:10pm

Mon Jan 20, 3:00pm

Mon Jan 20, 2:10pm

Mon Jan 20, 2:00pm

Mon Jan 20, 1:10pm

Mon Jan 20, 1:00pm

Mon Jan 20, 12:10pm

Mon Jan 20, 12:00pm

Meta data:

ID: 80244673-e827-43a4-ae7a-fd89f859231d
Link: https://api.weather.gov/products/80244673-e827-43a4-ae7a-fd89f859231d